Terminal Aerodrome Forecast
Issued by NWS Riverton, WY

Home | Current Version | Previous Version | Text Only | Print | Product List | Glossary On
Versions: 1 2 3 4 5 6 7 8 9 10 11 12 13 14
000
FTUS45 KRIW 211700
TAFRIW
TAF
KRIW 211720Z 2118/2218 VRB04KT P6SM VCSH BKN070
     FM211900 24018G25KT P6SM SCT070 BKN120
     FM220200 30016G26KT P6SM SCT100
     FM220700 30009KT P6SM FEW150
     FM221400 VRB04KT P6SM SKC=

USA.gov is the U.S. government's official web portal to all federal, state and local government web resources and services.